"2009-08-04 00:00:00",1120609,6.416,234,2.453,0.302,22.36,110.5189,26.23,27.24,15.17,0,111.2,13.13,27.07,196.0
"2009-08-04 00:00:30",1120610,5.744,234.6,4.939,0.228,22.24,110.5175,26.22,27.24,15.62,0,111.2,13.13,27.07,196.6
"2009-08-04 00:01:00",1120611,5.663,233.2,2.722,0.262,22.14,110.518,26.23,27.23,16.1,0,111.2,13.13,27.07,195.2
"2009-08-04 00:01:30",1120612,5.421,222.6,3.593,0.357,22.04,110.5144,26.22,27.23,16.49,0,111.2,13.13,27.06,184.6
"2009-08-04 00:02:00",1120613,5.466,225.7,3.576,0.27,22.05,110.5121,26.21,27.22,16.58,0,111.2,13.13,27.05,187.7
"2009-08-04 00:02:30",1120614,5.419,223,2.415,0.445,22.02,110.5071,26.2,27.19,16.9,0,111.2,13.13,27.04,185.0
"2009-08-04 00:03:00",1120615,5.206,222,3.046,0.389,22.01,110.4855,26.14,27.18,16.87,0,111.2,13.13,26.99,184.0
"2009-08-04 00:03:30",1120616,6.014,221.4,4.458,0.347,21.92,110.4793,26.13,27.16,17.07,0,111.2,13.13,26.97,183.4
"2009-08-04 00:04:00",1120617,6.016,211.6,1.887,0.251,21.98,110.4787,26.12,27.14,17.16,0,111.2,13.13,26.97,173.6
"2009-08-04 00:04:30",1120618,5.938,216.7,4.851,0.46,22.26,110.4784,26.12,27.13,16.76,0,111.2,13.13,26.97,178.7
"2009-08-04 00:05:00",1120619,6.553,209.9,4.554,0.25,22.25,110.4784,26.12,27.12,16.04,0,111.2,13.13,26.97,171.9
"2009-08-04 00:05:30",1120620,5.968,211.9,5.739,0.254,22.38,110.4784,26.12,27.11,15.52,0,111.2,13.13,26.97,173.9
"2009-08-04 00:06:00",1120621,6.152,208.3,2.944,0.243,22.41,110.4784,26.12,27.1,15.23,0,111.2,13.13,26.97,170.3
"2009-08-04 00:06:30",1120622,5.907,205.9,5.129,0.277,22.37,110.4784,26.12,27.08,15.13,0,111.2,13.13,26.97,167.9
"2009-08-04 00:07:00",1120623,6.563,211.9,2.735,0.305,22.38,110.4784,26.12,27.09,15.05,0,111.2,13.13,26.97,173.9
"2009-08-04 00:07:30",1120624,6.638,213.6,2.117,0.339,22.37,110.4776,26.12,27.09,14.87,0,111.2,13.13,26.96,175.6
"2009-08-04 00:08:00",1120625,6.585,216.3,5.073,0.432,22.33,110.468,26.1,27.08,14.98,0,111.2,13.13,26.94,178.3
"2009-08-04 00:08:30",1120626,6.037,218.9,4.188,0.285,22.36,110.4563,26.07,27.08,14.68,0,111.2,13.13,26.91,180.9
"2009-08-04 00:09:00",1120627,5.671,214.5,4.579,0.4,22.33,110.4546,26.06,27.08,14.67,0,111.2,13.13,26.91,176.5
"2009-08-04 00:09:30",1120628,5.299,210.8,2.636,0.299,22.37,110.4506,26.05,27.06,14.67,0,111.2,13.13,26.90,172.8
"2009-08-04 00:10:00",1120629,5.429,207.7,3.688,0.376,22.35,110.4492,26.05,27.06,14.59,0,111.2,13.13,26.89,169.7
"2009-08-04 00:10:30",1120630,7.548,207.8,2.822,0.41,22.25,110.447,26.04,27.06,15.09,0,111.2,13.13,26.89,169.8
"2009-08-04 00:11:00",1120631,7.415,211,5.361,0.347,22.29,110.4456,26.04,27.06,15.11,0,111.2,13.13,26.88,173.0
"2009-08-04 00:11:30",1120632,7.426,211.1,4.436,0.568,22.22,110.4447,26.04,27.05,15.39,0,111.2,13.13,26.88,173.1
"2009-08-04 00:12:00",1120633,7.427,210.3,4.009,0.465,22.31,110.4447,26.04,27.03,15.31,0,111.2,13.13,26.88,172.3
"2009-08-04 00:12:30",1120634,7.55,211.7,2.711,0.338,22.29,110.4447,26.04,27.04,15.32,0,111.2,13.13,26.88,173.7
"2009-08-04 00:13:00",1120635,7.393,213.9,2.591,0.297,22.34,110.4447,26.04,27.05,15.11,0,111.2,13.13,26.88,175.9
"2009-08-04 00:13:30",1120636,7.506,213.2,1.708,0.37,22.35,110.4447,26.04,27.06,14.97,0,111.2,13.13,26.88,175.2
"2009-08-04 00:14:00",1120637,7.808,215.8,1.624,0.123,22.31,110.4447,26.04,27.04,15.23,0,111.2,13.13,26.88,177.8
"2009-08-04 00:14:30",1120638,7.656,217.5,1.753,0.326,22.33,110.4447,26.04,27.02,15.31,0,111.2,13.13,26.88,179.5
"2009-08-04 00:15:00",1120639,6.965,216.7,1.007,0.178,22.32,110.4447,26.04,27.02,15.13,0,111.2,13.13,26.88,178.7
"2009-08-04 00:15:30",1120640,6.818,213.5,1.174,0.21,22.27,110.4447,26.04,27.03,15.19,0,111.2,13.13,26.88,175.5
"2009-08-04 00:16:00",1120641,6.659,213.7,2.144,0.234,22.32,110.4442,26.04,27.03,15.05,0,111.2,13.13,26.88,175.7
"2009-08-04 00:16:30",1120642,6.81,215.9,2.101,0.276,22.34,110.4425,26.03,27.01,14.84,0,111.2,13.13,26.87,177.9
"2009-08-04 00:17:00",1120643,6.074,217.1,1.924,0.317,22.3,110.4363,26.02,27.02,14.71,0,111.2,13.13,26.86,179.1
"2009-08-04 00:17:30",1120644,5.08,219.5,4.256,0.714,22.31,110.4358,26.01,27,14.4,0,111.2,13.13,26.86,181.5
"2009-08-04 00:18:00",1120645,5.343,219.7,4.877,0.45,22.22,110.4352,26.01,27.01,14.49,0,111.2,13.13,26.86,181.7
"2009-08-04 00:18:30",1120646,4.827,215.6,5.49,0.441,22.05,110.4405,26.03,27.01,14.63,0,111.2,13.13,26.87,177.6
"2009-08-04 00:19:00",1120647,5.19,212.3,3.023,0.218,22.04,110.4436,26.03,27.02,14.54,0,111.2,13.13,26.88,174.3
"2009-08-04 00:19:30",1120648,5.008,211.5,3.975,0.304,21.91,110.4447,26.04,27,14.52,0,111.2,13.14,26.88,173.5
"2009-08-04 00:20:00",1120649,4.94,219.2,4.394,0.392,21.86,110.4447,26.04,27.01,14.45,0,111.2,13.14,26.88,181.2
"2009-08-04 00:20:30",1120650,5.263,213.9,2.305,0.235,21.78,110.4447,26.04,27.01,14.54,0,111.2,13.14,26.88,175.9
"2009-08-04 00:21:00",1120651,5.816,214.9,2.746,0.187,21.77,110.4447,26.04,27.02,14.43,0,111.2,13.14,26.88,176.9
"2009-08-04 00:21:30",1120652,5.595,213.5,2.143,0.267,21.7,110.4475,26.04,27.04,14.53,0,111.2,13.14,26.89,175.5
"2009-08-04 00:22:00",1120653,5.523,214.7,0.932,0.083,21.76,110.4602,26.08,27.04,14.64,0,111.2,13.14,26.92,176.7
"2009-08-04 00:22:30",1120654,5.495,213.6,2.466,0.222,21.77,110.4776,26.12,27.06,14.64,0,111.2,13.14,26.96,175.6
"2009-08-04 00:23:00",1120655,5.673,213.8,1.048,0.07,21.76,110.4784,26.12,27.08,14.69,0,111.2,13.14,26.97,175.8
"2009-08-04 00:23:30",1120656,5.873,211.3,1.089,0.184,21.73,110.4801,26.13,27.1,14.83,0,111.2,13.14,26.97,173.3
"2009-08-04 00:24:00",1120657,5.592,207.7,1.548,0.066,21.75,110.4967,26.17,27.11,14.66,0,111.2,13.14,27.01,169.7
"2009-08-04 00:24:30",1120658,5.761,210.8,2.466,0.121,21.78,110.5121,26.21,27.13,14.64,0,111.2,13.13,27.05,172.8
"2009-08-04 00:25:00",1120659,5.447,205.5,2.761,0.191,21.9,110.5121,26.21,27.15,14.6,0,111.2,13.13,27.05,167.5
"2009-08-04 00:25:30",1120660,5.575,203,1.404,0.163,21.99,110.5154,26.22,27.17,14.49,0,111.2,13.13,27.06,165.0
"2009-08-04 00:26:00",1120661,5.565,202.2,2.24,0.119,22.08,110.5261,26.25,27.19,14.44,0,111.2,13.13,27.09,164.2
"2009-08-04 00:26:30",1120662,5.631,202.8,2.085,0.129,22.2,110.5428,26.29,27.2,14.34,0,111.2,13.13,27.13,164.8
"2009-08-04 00:27:00",1120663,5.617,202.2,1.862,0.131,22.22,110.5449,26.29,27.23,14.26,0,111.2,13.13,27.14,164.2
"2009-08-04 00:27:30",1120664,5.394,205.3,5.324,0.285,22.22,110.5446,26.29,27.23,14.18,0,111.2,13.13,27.14,167.3
"2009-08-04 00:28:00",1120665,5.395,206.4,4.491,0.195,22.19,110.5493,26.31,27.25,14.26,0,111.2,13.13,27.15,168.4
"2009-08-04 00:28:30",1120666,4.375,221.2,3.792,0.363,22.27,110.5603,26.33,27.28,14.12,0,111.2,13.13,27.18,183.2
"2009-08-04 00:29:00",1120667,4.348,217.6,4.984,0.208,22.25,110.5675,26.35,27.28,14.03,0,111.2,13.13,27.20,179.6
"2009-08-04 00:29:30",1120668,4.507,211.8,3.624,0.321,22.21,110.5717,26.36,27.3,14,0,111.2,13.13,27.21,173.8
"2009-08-04 00:30:00",1120669,4.445,211.1,1.775,0.074,22,110.5749,26.37,27.31,14.11,0,111.2,13.13,27.22,173.1
"2009-08-04 00:30:30",1120670,5.112,213.4,2.421,0.341,21.76,110.5761,26.38,27.32,14.43,0,111.2,13.13,27.22,175.4
"2009-08-04 00:31:00",1120671,5.52,216.9,1.482,0.112,21.58,110.5739,26.37,27.34,14.86,0,111.2,13.13,27.21,178.9
"2009-08-04 00:31:30",1120672,5.577,220,2.836,0.219,21.69,110.5738,26.37,27.36,14.6,0,111.2,13.12,27.21,182.0
"2009-08-04 00:32:00",1120673,5.253,221.2,2.211,0.212,21.72,110.5809,26.39,27.37,14.49,0,111.2,13.13,27.23,183.2
"2009-08-04 00:32:30",1120674,5.426,220.3,1.337,0.209,21.64,110.5829,26.39,27.36,14.55,0,111.2,13.12,27.24,182.3
"2009-08-04 00:33:00",1120675,5.351,218.7,3.215,0.145,21.75,110.6011,26.44,27.39,14.61,0,111.2,13.12,27.28,180.7
"2009-08-04 00:33:30",1120676,5.539,215.8,4.381,0.183,21.93,110.6039,26.45,27.38,14.34,0,111.2,13.12,27.29,177.8
"2009-08-04 00:34:00",1120677,4.963,226.3,5.08,0.25,22.01,110.6039,26.45,27.41,13.96,0,111.2,13.12,27.29,188.3
"2009-08-04 00:34:30",1120678,4.677,224.6,4.514,0.151,22.02,110.6039,26.45,27.42,13.84,0,111.3,13.12,27.29,186.6
"2009-08-04 00:35:00",1120679,4.138,223.2,1.121,0.196,21.99,110.6064,26.45,27.42,14.07,0,111.2,13.13,27.30,185.2
"2009-08-04 00:35:30",1120680,4.113,220.1,1.439,0.297,21.94,110.6206,26.49,27.43,14.09,0,111.2,13.13,27.33,182.1
"2009-08-04 00:36:00",1120681,4.587,219.2,2.048,0.106,21.94,110.6284,26.51,27.44,14.33,0,111.2,13.13,27.35,181.2
"2009-08-04 00:36:30",1120682,4.751,215.3,1.396,0.095,21.94,110.6284,26.51,27.45,14.3,0,111.2,13.13,27.35,177.3
"2009-08-04 00:37:00",1120683,4.586,217.9,2.679,0.247,22.02,110.6242,26.5,27.46,14.23,0,111.2,13.13,27.34,179.9
"2009-08-04 00:37:30",1120684,4.631,219.2,2.197,0.255,22.14,110.6227,26.49,27.48,14.18,0,111.3,13.13,27.34,181.2
"2009-08-04 00:38:00",1120685,4.451,218.9,1.206,0.15,22.15,110.6185,26.48,27.49,14.14,0,111.3,13.13,27.33,180.9
"2009-08-04 00:38:30",1120686,4.351,218.7,1.322,0.081,22.13,110.6204,26.49,27.51,14.25,0,111.3,13.13,27.33,180.7
"2009-08-04 00:39:00",1120687,4.385,219.3,0.863,0.071,22.21,110.6261,26.5,27.52,14.28,0,111.2,13.13,27.35,181.3
"2009-08-04 00:39:30",1120688,4.456,219.7,0.941,0.078,22.24,110.6229,26.5,27.51,14.29,0,111.2,13.13,27.34,181.7
"2009-08-04 00:40:00",1120689,4.691,218.9,0.966,0.14,22.3,110.6294,26.51,27.51,14.26,0,111.2,13.13,27.36,180.9
"2009-08-04 00:40:30",1120690,4.282,222.2,2.365,0.239,22.32,110.6359,26.53,27.52,14.17,0,111.3,13.13,27.37,184.2
"2009-08-04 00:41:00",1120691,4.144,221.5,2.656,0.304,22.42,110.6373,26.53,27.53,13.97,0,111.3,13.13,27.38,183.5
"2009-08-04 00:41:30",1120692,4.566,225.6,5.639,0.428,22.48,110.6395,26.54,27.54,13.82,0,111.2,13.12,27.38,187.6
"2009-08-04 00:42:00",1120693,4.542,232.8,4.28,0.367,22.49,110.6367,26.53,27.54,13.68,0,111.3,13.12,27.38,194.8
"2009-08-04 00:42:30",1120694,4.255,228.9,6.175,0.223,22.41,110.63,26.51,27.53,13.84,0,111.3,13.12,27.36,190.9
"2009-08-04 00:43:00",1120695,4.274,219,2.193,0.089,22.31,110.6263,26.5,27.53,14.1,0,111.3,13.12,27.35,181.0
"2009-08-04 00:43:30",1120696,4.31,219.8,1.249,0.056,22.28,110.6239,26.5,27.54,14.33,0,111.2,13.13,27.34,181.8
"2009-08-04 00:44:00",1120697,4.454,218.2,0.68,0.047,22.31,110.624,26.5,27.55,14.33,0,111.3,13.13,27.34,180.2
"2009-08-04 00:44:30",1120698,4.825,218.1,1.248,0.222,22.24,110.617,26.48,27.53,14.4,0,111.3,13.13,27.32,180.1
"2009-08-04 00:45:00",1120699,5.224,219,1.026,0.085,22.31,110.618,26.48,27.53,14.66,0,111.3,13.13,27.33,181.0
"2009-08-04 00:45:30",1120700,5.385,220.5,0.786,0.109,22.32,110.6162,26.48,27.51,14.78,0,111.2,13.13,27.32,182.5
"2009-08-04 00:46:00",1120701,5.276,221.5,0.693,0.07,22.28,110.6199,26.49,27.51,14.76,0,111.2,13.13,27.33,183.5
"2009-08-04 00:46:30",1120702,5.216,222.8,0.597,0.109,22.33,110.6206,26.49,27.5,14.69,0,111.2,13.13,27.33,184.8
"2009-08-04 00:47:00",1120703,5.139,224.2,2.341,0.161,22.39,110.6152,26.48,27.49,14.57,0,111.2,13.12,27.32,186.2
"2009-08-04 00:47:30",1120704,5.072,226,1.375,0.157,22.51,110.5974,26.43,27.47,14.34,0,111.2,13.12,27.27,188.0
"2009-08-04 00:48:00",1120705,4.832,225.9,1.579,0.112,22.39,110.5961,26.43,27.45,14.44,0,111.2,13.12,27.27,187.9
"2009-08-04 00:48:30",1120706,4.634,223.8,2.049,0.237,22.43,110.5971,26.43,27.43,14.6,0,111.2,13.12,27.27,185.8
"2009-08-04 00:49:00",1120707,4.148,221.6,3.273,0.112,22.49,110.5805,26.39,27.42,14.46,0,111.2,13.12,27.23,183.6
"2009-08-04 00:49:30",1120708,4.349,219.4,3.074,0.217,22.41,110.5719,26.36,27.4,14.48,0,111.2,13.12,27.21,181.4
"2009-08-04 00:50:00",1120709,4.351,220.4,3.152,0.177,22.48,110.569,26.36,27.39,14.5,0,111.2,13.12,27.20,182.4
"2009-08-04 00:50:30",1120710,4.804,219.3,1.124,0.067,22.32,110.569,26.36,27.35,14.54,0,111.2,13.12,27.20,181.3
"2009-08-04 00:51:00",1120711,4.592,220.1,1.34,0.072,22.36,110.5635,26.34,27.34,14.76,0,111.2,13.12,27.19,182.1
"2009-08-04 00:51:30",1120712,4.561,221.1,0.979,0.164,22.34,110.5435,26.29,27.34,14.78,0,111.2,13.12,27.13,183.1
"2009-08-04 00:52:00",1120713,4.238,220.6,0.92,0.093,22.31,110.5365,26.27,27.32,14.67,0,111.2,13.13,27.12,182.6
"2009-08-04 00:52:30",1120714,4.458,221.5,1.31,0.145,22.24,110.5365,26.27,27.29,14.63,0,111.2,13.12,27.12,183.5
"2009-08-04 00:53:00",1120715,4.397,219.6,1.259,0.092,22.16,110.5312,26.26,27.26,14.83,0,111.2,13.12,27.10,181.6
"2009-08-04 00:53:30",1120716,4.343,219.5,1.06,0.041,22.18,110.5167,26.22,27.25,14.81,0,111.2,13.13,27.07,181.5
"2009-08-04 00:54:00",1120717,4.387,216.8,0.942,0.085,22.19,110.5077,26.2,27.24,14.91,0,111.2,13.13,27.04,178.8
"2009-08-04 00:54:30",1120718,4.463,217.5,1.137,0.053,22.19,110.5031,26.19,27.23,15.11,0,111.2,13.13,27.03,179.5
"2009-08-04 00:55:00",1120719,4.388,216.5,1.394,0.151,22.2,110.5047,26.19,27.22,15.02,0,111.2,13.13,27.03,178.5
"2009-08-04 00:55:30",1120720,3.984,216.6,1.177,0.101,22.14,110.5059,26.19,27.2,14.89,0,111.2,13.13,27.04,178.6
"2009-08-04 00:56:00",1120721,4.354,215.8,1.012,0.144,22.1,110.5041,26.19,27.18,15,0,111.2,13.13,27.03,177.8
"2009-08-04 00:56:30",1120722,4.223,216.3,1.135,0.1,22.12,110.505,26.19,27.18,15.08,0,111.2,13.13,27.04,178.3
"2009-08-04 00:57:00",1120723,3.911,216.9,1.04,0.198,22.13,110.5048,26.19,27.18,14.85,0,111.2,13.13,27.04,178.9
"2009-08-04 00:57:30",1120724,3.573,214.9,1.089,0.094,22.17,110.5015,26.18,27.16,14.59,0,111.2,13.13,27.03,176.9
"2009-08-04 00:58:00",1120725,3.242,214,1.238,0.069,22.32,110.4917,26.16,27.17,14.5,0,111.2,13.13,27.00,176.0
"2009-08-04 00:58:30",1120726,3.235,213.4,2.233,0.071,22.27,110.4916,26.16,27.16,14.51,0,111.2,13.13,27.00,175.4
"2009-08-04 00:59:00",1120727,3.178,210,1.552,0.127,22.16,110.4913,26.16,27.16,14.42,0,111.2,13.13,27.00,172.0
"2009-08-04 00:59:30",1120728,3.047,208.2,2.138,0.07,22.12,110.4893,26.15,27.15,14.41,0,111.2,13.13,27.00,170.2
"2009-08-04 01:00:00",1120729,2.792,212.1,2.556,0.162,21.96,110.4919,26.16,27.14,14.32,0,111.2,13.13,27.00,174.1
"2009-08-04 01:00:30",1120730,2.823,206.1,2.118,0.095,21.89,110.4979,26.17,27.14,14.27,0,111.2,13.13,27.02,168.1
"2009-08-04 01:01:00",1120731,2.577,208.6,3.676,0.115,21.89,110.5053,26.19,27.15,14.3,0,111.2,13.13,27.04,170.6
"2009-08-04 01:01:30",1120732,2.609,208.8,3.005,0.142,21.88,110.5075,26.2,27.16,14.27,0,111.2,13.13,27.04,170.8
"2009-08-04 01:02:00",1120733,2.586,206,1.82,0.082,21.83,110.5059,26.19,27.16,14.35,0,111.2,13.13,27.04,168.0
"2009-08-04 01:02:30",1120734,2.542,208.6,1.628,0.08,21.86,110.5065,26.2,27.17,14.35,0,111.2,13.13,27.04,170.6
"2009-08-04 01:03:00",1120735,2.282,212.2,1.678,0.107,21.81,110.5044,26.19,27.19,14.31,0,111.2,13.13,27.03,174.2
"2009-08-04 01:03:30",1120736,1.985,214.3,4.017,0.101,21.83,110.5064,26.2,27.19,14.27,0,111.2,13.13,27.04,176.3
"2009-08-04 01:04:00",1120737,2.203,211.4,2.426,0.041,21.74,110.5133,26.21,27.21,14.28,0,111.2,13.12,27.06,173.4
"2009-08-04 01:04:30",1120738,2.095,214.6,0.916,0.079,21.74,110.5264,26.25,27.22,14.31,0,111.2,13.12,27.09,176.6
"2009-08-04 01:05:00",1120739,1.866,215.3,2.16,0.068,21.93,110.5362,26.27,27.23,14.25,0,111.2,13.12,27.12,177.3
"2009-08-04 01:05:30",1120740,1.734,218.4,2.845,0.088,21.78,110.5365,26.27,27.25,14.17,0,111.2,13.12,27.12,180.4
"2009-08-04 01:06:00",1120741,1.614,222.5,1.668,0.056,21.69,110.5402,26.28,27.26,14.16,0,111.2,13.13,27.13,184.5
"2009-08-04 01:06:30",1120742,1.671,223.8,1.787,0.045,21.66,110.5543,26.32,27.28,14.18,0,111.2,13.12,27.16,185.8
"2009-08-04 01:07:00",1120743,1.682,221.7,1.764,0.074,21.68,110.5654,26.35,27.29,14.17,0,111.2,13.12,27.19,183.7
"2009-08-04 01:07:30",1120744,1.868,220.9,1.949,0.134,21.71,110.5627,26.34,27.32,14.22,0,111.2,13.12,27.18,182.9
"2009-08-04 01:08:00",1120745,1.833,222.8,3.051,0.129,21.68,110.5597,26.33,27.33,14.31,0,111.2,13.12,27.18,184.8
"2009-08-04 01:08:30",1120746,1.899,224.2,3.528,0.056,21.67,110.5719,26.36,27.35,14.35,0,111.2,13.12,27.21,186.2
"2009-08-04 01:09:00",1120747,2.003,220.7,2.845,0.082,21.74,110.5809,26.39,27.37,14.39,0,111.2,13.12,27.23,182.7
"2009-08-04 01:09:30",1120748,1.823,226.5,4.401,0.151,21.73,110.58,26.39,27.39,14.38,0,111.2,13.13,27.23,188.5
"2009-08-04 01:10:00",1120749,1.928,227,3.744,0.049,21.74,110.5915,26.41,27.41,14.34,0,111.2,13.13,27.26,189.0
"2009-08-04 01:10:30",1120750,1.907,225.3,3.06,0.111,21.76,110.6084,26.46,27.43,14.36,0,111.2,13.13,27.30,187.3
"2009-08-04 01:11:00",1120751,1.689,231.3,2.336,0.065,21.85,110.6106,26.46,27.45,14.33,0,111.2,13.13,27.31,193.3
"2009-08-04 01:11:30",1120752,1.611,231.9,2.043,0.061,21.84,110.6125,26.47,27.48,14.29,0,111.2,13.13,27.31,193.9
"2009-08-04 01:12:00",1120753,1.644,232.6,2.173,0.038,21.83,110.6242,26.5,27.49,14.28,0,111.2,13.13,27.34,194.6
"2009-08-04 01:12:30",1120754,1.628,236.6,1.35,0.063,21.82,110.6416,26.54,27.52,14.29,0,111.2,13.13,27.39,198.6
"2009-08-04 01:13:00",1120755,1.546,238,1.176,0.035,21.79,110.6433,26.55,27.54,14.29,0,111.2,13.13,27.39,200.0
"2009-08-04 01:13:30",1120756,1.48,240.2,1.065,0.056,21.77,110.6458,26.55,27.56,14.28,0,111.2,13.12,27.40,202.2
"2009-08-04 01:14:00",1120757,1.465,241.6,1.599,0.072,21.8,110.6576,26.58,27.57,14.28,0,111.2,13.12,27.43,203.6
"2009-08-04 01:14:30",1120758,1.333,243.2,2.436,0.057,21.89,110.6748,26.63,27.6,14.27,0,111.2,13.12,27.47,205.2
"2009-08-04 01:15:00",1120759,1.212,245.2,1.46,0.051,21.93,110.677,26.63,27.61,14.25,0,111.2,13.12,27.48,207.2
"2009-08-04 01:15:30",1120760,1.103,241.4,2.571,0.062,21.91,110.677,26.63,27.63,14.26,0,111.2,13.12,27.48,203.4
"2009-08-04 01:16:00",1120761,0.85,248.1,3.945,0.134,21.81,110.6829,26.65,27.64,14.25,0,111.2,13.12,27.49,210.1
"2009-08-04 01:16:30",1120762,0.808,243.5,4.474,0.048,21.85,110.6961,26.68,27.66,14.21,0,111.2,13.12,27.53,205.5
"2009-08-04 01:17:00",1120763,0.624,235.8,5.314,0.064,21.84,110.7098,26.72,27.67,14.21,0,111.2,13.12,27.56,197.8
"2009-08-04 01:17:30",1120764,0.641,252.5,5.946,0.057,21.77,110.7107,26.72,27.69,14.2,0,111.3,13.12,27.57,214.5
"2009-08-04 01:18:00",1120765,0.596,246.6,5.753,0.056,21.77,110.7107,26.72,27.7,14.19,0,111.3,13.12,27.57,208.6
"2009-08-04 01:18:30",1120766,0.512,255.1,5.843,0.057,21.83,110.7138,26.73,27.72,14.17,0,111.3,13.12,27.57,217.1
"2009-08-04 01:19:00",1120767,0.596,261.4,3.541,0.05,21.85,110.7199,26.74,27.73,14.16,0,111.3,13.12,27.59,223.4
"2009-08-04 01:19:30",1120768,0.575,271.1,1.742,0.049,21.89,110.7208,26.75,27.75,14.19,0,111.3,13.12,27.59,233.1
"2009-08-04 01:20:00",1120769,0.534,272,6.994,0.113,21.88,110.7138,26.73,27.74,14.23,0,111.3,13.12,27.57,234.0
"2009-08-04 01:20:30",1120770,0.888,258.3,6.265,0.221,21.82,110.7101,26.72,27.74,14.37,0,111.3,13.12,27.56,220.3
"2009-08-04 01:21:00",1120771,1.442,247.7,2.12,0.084,21.63,110.679,26.64,27.71,14.92,0,111.3,13.12,27.48,209.7
"2009-08-04 01:21:30",1120772,1.864,234.7,4.588,0.224,21.28,110.636,26.53,27.65,16.99,0,111.3,13.11,27.37,196.7
"2009-08-04 01:22:00",1120773,1.472,224.4,4.815,0.18,21.03,110.5641,26.34,27.55,19.47,0,111.3,13.11,27.19,186.4
"2009-08-04 01:22:30",1120774,0.43,197.2,19.37,0.36,21.11,110.4855,26.14,27.44,20.81,0,111.3,13.11,26.99,159.2
"2009-08-04 01:23:00",1120775,0.465,149.4,6.403,0.168,21.04,110.4182,25.97,27.34,21.29,0,111.3,13.11,26.81,111.4
"2009-08-04 01:23:30",1120776,0.644,71.17,33.44,0.526,20.9,110.371,25.85,27.23,21.69,0,111.3,13.11,26.69,33.2
"2009-08-04 01:24:00",1120777,1.539,50.82,14,0.259,20.73,110.3677,25.84,27.14,22.36,0,111.3,13.11,26.68,12.8
"2009-08-04 01:24:30",1120778,0.738,82,20.24,0.304,21.02,110.3704,25.85,27.05,22.26,0,111.3,13.11,26.69,44.0
"2009-08-04 01:25:00",1120779,2.012,39.83,14.47,0.916,20.86,110.3764,25.86,27.03,22.38,0,111.3,13.11,26.70,1.8
"2009-08-04 01:25:30",1120780,2.763,24.23,8.81,0.321,20.95,110.3778,25.87,27.01,22.72,0,111.3,13.11,26.71,346.2
"2009-08-04 01:26:00",1120781,2.319,21.75,14.11,0.472,21.14,110.3731,25.85,27.01,22.61,0,111.3,13.11,26.70,343.8
"2009-08-04 01:26:30",1120782,1.766,39.76,10.05,0.447,21.21,110.3739,25.86,26.99,22.5,0,111.3,13.11,26.70,1.8
"2009-08-04 01:27:00",1120783,2.547,37.25,8.11,0.729,21.17,110.3726,25.85,26.97,22.51,0,111.3,13.12,26.69,359.2
"2009-08-04 01:27:30",1120784,2.312,50.05,12.26,0.43,21.14,110.3736,25.85,26.96,22.72,0,111.3,13.12,26.70,12.0
"2009-08-04 01:28:00",1120785,1.602,77.03,13.48,0.361,21.17,110.3725,25.85,26.93,22.93,0,111.3,13.12,26.69,39.0
"2009-08-04 01:28:30",1120786,0.827,64.44,26.79,0.332,21.25,110.3464,25.78,26.91,22.79,0,111.3,13.12,26.63,26.4
"2009-08-04 01:29:00",1120787,1.43,83.4,7.679,0.183,21.38,110.3402,25.77,26.89,22.76,0,111.3,13.12,26.61,45.4
"2009-08-04 01:29:30",1120788,1.375,103.8,5.72,0.132,21.43,110.3332,25.75,26.86,22.59,0,111.3,13.12,26.59,65.8
"2009-08-04 01:30:00",1120789,1.117,110.4,6.777,0.152,21.53,110.3082,25.69,26.83,22.27,0,111.3,13.12,26.53,72.4
"2009-08-04 01:30:30",1120790,1.249,111.9,4.22,0.07,21.6,110.3003,25.67,26.8,21.99,0,111.3,13.12,26.51,73.9
"2009-08-04 01:31:00",1120791,1.309,105.3,2.924,0.056,21.66,110.2756,25.6,26.76,21.99,0,111.3,13.12,26.44,67.3
"2009-08-04 01:31:30",1120792,1.111,105,3.011,0.064,21.74,110.2728,25.6,26.73,21.99,0,111.3,13.12,26.44,67.0
"2009-08-04 01:32:00",1120793,0.915,106,3.434,0.078,21.72,110.2518,25.54,26.7,22.02,0,111.3,13.12,26.38,68.0
"2009-08-04 01:32:30",1120794,0.885,109.8,4.131,0.081,21.73,110.2394,25.51,26.67,22.03,0,111.3,13.12,26.35,71.8
"2009-08-04 01:33:00",1120795,0.679,106,4.641,0.088,21.73,110.2391,25.51,26.64,22.04,0,111.3,13.12,26.35,68.0
"2009-08-04 01:33:30",1120796,0.41,116.7,4.702,0.058,21.73,110.2178,25.45,26.62,22.09,0,111.3,13.12,26.29,78.7
"2009-08-04 01:34:00",1120797,0.273,129.3,7.831,0.072,21.7,110.2055,25.42,26.58,22.12,0,111.3,13.12,26.26,91.3
"2009-08-04 01:34:30",1120798,0.113,142.5,17.4,0.029,21.72,110.1895,25.38,26.54,22.09,0,111.3,13.12,26.22,104.5
"2009-08-04 01:35:00",1120799,0.042,183.8,7.508,0.04,21.65,110.1723,25.34,26.5,22.1,0,111.3,13.12,26.18,145.8
"2009-08-04 01:35:30",1120800,0.141,211,5.893,0.055,21.68,110.1718,25.34,26.46,22.07,0,111.3,13.12,26.18,173.0
"2009-08-04 01:36:00",1120801,0.374,215.6,2.872,0.098,21.82,110.1678,25.33,26.44,22.1,0,111.3,13.12,26.17,177.6
"2009-08-04 01:36:30",1120802,0.769,212.2,5.352,0.189,21.85,110.1504,25.28,26.39,21.91,0,111.3,13.12,26.12,174.2
"2009-08-04 01:37:00",1120803,0.864,207.9,4.269,0.076,21.92,110.1423,25.26,26.38,21.24,0,111.2,13.12,26.10,169.9
"2009-08-04 01:37:30",1120804,0.945,215,4.212,0.106,21.86,110.1381,25.25,26.35,20.9,0,111.3,13.12,26.09,177.0
"2009-08-04 01:38:00",1120805,0.549,194,13.49,0.144,21.98,110.1358,25.24,26.32,20.86,0,111.2,13.12,26.08,156.0
"2009-08-04 01:38:30",1120806,0.749,197.3,6.01,0.156,21.89,110.1148,25.19,26.31,20.83,0,111.2,13.12,26.03,159.3
"2009-08-04 01:39:00",1120807,0.825,202.3,4.096,0.089,21.86,110.1064,25.17,26.28,21.32,0,111.2,13.12,26.01,164.3
"2009-08-04 01:39:30",1120808,1.11,200.5,5.666,0.096,21.91,110.1041,25.16,26.25,21.36,0,111.2,13.12,26.00,162.5
"2009-08-04 01:40:00",1120809,1.3,178,13.15,0.114,21.8,110.0896,25.12,26.23,21.39,0,111.2,13.12,25.96,140.0
"2009-08-04 01:40:30",1120810,1.457,170.3,1.539,0.12,21.76,110.0767,25.09,26.2,22.05,0,111.2,13.12,25.93,132.3
"2009-08-04 01:41:00",1120811,1.441,169,1.682,0.099,21.78,110.0732,25.08,26.18,22.23,0,111.2,13.12,25.92,131.0
"2009-08-04 01:41:30",1120812,1.648,166.2,2.531,0.03,21.81,110.0744,25.09,26.17,22.23,0,111.2,13.12,25.93,128.2
"2009-08-04 01:42:00",1120813,1.947,164.4,3.661,0.177,21.86,110.0713,25.08,26.14,22.16,0,111.2,13.12,25.92,126.4
"2009-08-04 01:42:30",1120814,1.826,177.9,3.691,0.105,22.01,110.0608,25.05,26.12,21.5,0,111.2,13.12,25.89,139.9
"2009-08-04 01:43:00",1120815,1.68,179,3.69,0.254,21.98,110.0509,25.03,26.11,21.17,0,111.2,13.12,25.86,141.0
"2009-08-04 01:43:30",1120816,1.541,184.3,6.65,0.277,21.93,110.054,25.03,26.08,21.32,0,111.2,13.12,25.87,146.3
"2009-08-04 01:44:00",1120817,1.567,184.2,4.7,0.136,21.89,110.0529,25.03,26.08,21.72,0,111.2,13.12,25.87,146.2
"2009-08-04 01:44:30",1120818,1.154,218.5,20.83,0.265,21.94,110.0368,24.99,26.06,21.75,0,111.2,13.12,25.83,180.5
"2009-08-04 01:45:00",1120819,0.917,200.5,17.71,0.241,22.03,110.0305,24.97,26.03,21.37,0,111.2,13.13,25.81,162.5
"2009-08-04 01:45:30",1120820,0.951,229.5,6.258,0.078,22.04,110.0309,24.97,26.01,21.31,0,111.2,13.13,25.81,191.5
"2009-08-04 01:46:00",1120821,1.16,224.4,5.407,0.133,22.11,110.0239,24.96,26,21.2,0,111.2,13.13,25.79,186.4
"2009-08-04 01:46:30",1120822,1.255,223.5,7.487,0.143,22.23,110.0067,24.91,25.97,20.89,0,111.2,13.13,25.75,185.5